User: anonymous   Login
Location: Deer Lodge Site
(39.6809°N, 119.9392°W)
Time: 09:52:40
(UTC-07:00)
Language:

CZ-4C R/B - Orbit

View from above orbital plane
View from above orbital plane
View from above satellite
View from above satellite

Ground track
Ground track

The orbit data is extracted from the following two-line orbital elements,

1 36416U 10009D   16274.18576669 -.00000060  00000-0  26009-4 0  9996
2 36416  63.4407 241.1600 0361457 357.0066   2.8807 13.69501669328760
Epoch (UTC): 30 September 2016 04:27:30
Eccentricity: 0.0361457
inclination: 63.4407°
perigee height: 734 km
apogee height: 1268 km
right ascension of ascending node: 241.1600°
argument of perigee: 357.0066°
revolutions per day: 13.69501669
mean anomaly at epoch: 2.8807°
orbit number at epoch: 32876

The dashed part of the orbit path shows where the satellite is in the earth's shadow,  

DLR